Location: Bettgenhausen
(50.6463°N, 7.5681°E)
Time: 15:22:46
(UTC+00:00)

Daily predictions for brighter satellites

Satellite Brightness Start Highest point End
(mag) Time Altitude Azimuth Time Altitude Azimuth Time Altitude Azimuth
NOSS 3-1 (A) 3.4 17:27:10 10° SSW 17:32:44 73° SE 17:39:17 10° NE
STARLINK-61 3.8 17:30:11 10° W 17:34:04 61° N 17:37:57 10° ENE
STARLINK-26 3.4 17:31:36 10° WNW 17:35:02 57° N 17:38:29 10° E
STARLINK-1057 3.8 17:30:59 10° SW 17:35:05 64° SSE 17:39:11 10° ENE
STARLINK-69 3.7 17:31:12 10° W 17:35:13 69° N 17:39:15 10° ENE
STARLINK-1009 3.3 17:32:30 10° W 17:35:57 69° NNW 17:39:25 10° ENE
Cosmos 1939 Rocket 3.2 17:32:04 10° SE 17:36:03 48° ENE 17:40:03 10° N
STARLINK-21 3.7 17:32:41 10° W 17:36:42 70° NNW 17:40:44 10° ENE
Cosmos 1833 4.3 17:31:21 10° NNW 17:37:10 90° NE 17:42:54 10° SSE
STARLINK-1015 3.3 17:34:46 10° W 17:38:13 68° NNW 17:41:41 10° ENE
STARLINK-45 3.8 17:34:34 10° W 17:38:35 67° N 17:42:37 10° ENE
CSL-04 Rocket 3.8 17:33:26 10° SSE 17:38:50 60° ENE 17:44:12 10° N
STARLINK-1034 3.7 17:35:56 10° SW 17:40:02 67° SSE 17:44:09 10° ENE
STARLINK-70 3.8 17:36:07 10° W 17:40:08 67° N 17:44:09 10° ENE
STARLINK-76 3.7 17:37:39 10° W 17:41:40 68° N 17:45:42 10° ENE
ATLAS 3B R/B 3.9 17:36:10 10° NW 17:41:44 27° N 17:47:24 10° ENE
STARLINK-1014 3.3 17:39:48 10° W 17:43:19 72° NNW 17:46:52 10° ENE
STARLINK-23 3.7 17:39:19 10° W 17:43:20 67° N 17:47:22 10° ENE
CZ-2D R/B 3.4 17:39:55 10° SSE 17:43:43 53° ENE 17:47:31 10° N
STARLINK-80 3.5 17:40:53 10° WNW 17:44:42 71° NNE 17:48:32 10° E
STARLINK-32 3.8 17:40:57 10° W 17:44:58 67° N 17:48:59 10° ENE
STARLINK-1068 3.7 17:40:53 10° WSW 17:45:00 71° SSE 17:49:09 10° ENE
CZ-2C R/B 4.3 17:41:52 10° ESE 17:46:23 25° ENE 17:50:49 10° N
STARLINK-40 3.8 17:42:37 10° W 17:46:38 66° N 17:50:39 10° ENE
CZ-4 R/B 1.5 17:43:08 10° SSE 17:47:18 90° S 17:51:27 10° NNW
STARLINK-44 3.8 17:44:17 10° W 17:48:18 66° N 17:52:19 10° ENE
Lacrosse 4 Rocket 3.6 17:45:28 10° W 17:48:54 23° NW 17:52:25 10° NNE
NOSS 7 (D) 4.2 17:46:48 10° NW 17:49:41 74° SW 17:52:53 10° SE
STARLINK-37 3.8 17:46:04 10° W 17:50:05 65° N 17:54:02 10° ENE
Cosmos 1633 Rocket 3.4 17:46:56 10° SSW 17:51:15 70° WNW 17:55:37 10° N
YAOGAN 1 2.5 17:47:10 10° SSE 17:51:29 80° ENE 17:55:51 10° NNW
STARLINK-36 3.8 17:47:35 10° W 17:51:35 65° N 17:55:30 11° ENE
STARLINK-64 3.6 17:48:12 10° W 17:51:46 57° N 17:55:09 11° ENE
CRYOSAT 2 4.4 17:47:09 10° SSE 17:51:56 57° E 17:56:46 10° N
Cosmos 2263 4.2 17:47:10 10° SSW 17:52:57 80° ESE 17:58:44 10° NNE
STARLINK-33 3.4 17:49:50 10° WNW 17:53:04 54° N 17:56:01 12° ENE
STARLINK-68 3.8 17:49:28 10° W 17:53:29 63° N 17:57:17 11° ENE
STARLINK-55 3.4 17:51:13 10° WNW 17:54:27 54° N 17:57:20 12° E
Ariane Rocket 3.5 17:49:53 10° SE 17:54:35 38° ENE 17:59:17 10° N
STARLINK-1060 3.6 17:50:49 10° WSW 17:54:57 78° SSE 17:58:55 11° ENE
STARLINK-63 3.8 17:51:01 10° W 17:55:02 64° N 17:58:46 12° ENE
STARLINK-66 3.4 17:52:07 10° WNW 17:55:21 54° N 17:58:12 13° E
STARLINK-28 3.4 17:52:50 10° WNW 17:56:03 54° N 17:58:52 13° E
USA 116 4.1 17:52:01 10° NNE 17:56:06 54° E 18:00:41 10° S
SJ-6B 4.3 17:53:44 10° ESE 17:56:12 17° ENE 17:58:42 10° NNE
STARLINK-35 3.8 17:52:34 10° W 17:56:34 64° N 18:00:16 12° ENE
Cosmos 990 Rocket 4.0 17:51:43 10° NNW 17:56:50 60° ENE 18:01:55 10° SE
STARLINK-42 3.4 17:53:42 10° WNW 17:56:53 53° N 17:59:38 13° ENE
NOSS 2-3 (C) 3.8 17:52:43 10° SW 17:57:08 83° SE 18:02:31 10° NE
STARLINK-51 3.8 17:54:14 10° W 17:58:14 63° N 18:01:52 12° ENE
FREGAT/IRIS 4.2 17:57:40 13° E 17:58:36 15° ENE 18:00:19 10° NNE
STARLINK-1029 3.2 17:55:54 10° W 17:59:03 62° NNW 18:01:47 13° ENE
STARLINK-1007 3.4 17:56:27 10° W 17:59:46 59° N 18:02:38 13° ENE
STARLINK-30 3.8 17:55:54 10° W 17:59:55 63° N 18:03:27 13° ENE
STARLINK-1030 3.6 17:55:48 10° WSW 17:59:57 82° SSE 18:03:43 12° ENE
Cosmos 1943 Rocket 2.8 17:55:24 10° SW 18:00:53 58° NW 18:06:22 10° NNE
Cosmos 2297 Rocket 3.3 17:56:08 10° NNW 18:00:54 26° NE 18:04:59 13° E
CSL-04 Debris 4.2 17:55:34 10° SSE 18:01:03 88° ENE 18:06:35 10° NNW
SKYMED 2 3.8 17:56:54 10° NNE 18:01:15 78° WNW 18:05:35 10° SSW
STARLINK-72 3.8 17:57:34 10° W 18:01:34 63° N 18:05:03 13° ENE
Cosmos 1933 Rocket 3.5 17:57:53 10° S 18:02:14 65° E 18:06:35 10° NNE
STARLINK-50 3.8 17:59:14 10° W 18:03:14 62° N 18:06:39 14° ENE
Nadezhda 4 Rocket 4.4 17:58:13 10° N 18:04:10 42° ENE 18:10:08 10° SE
NOSS 2 (A) 3.9 18:01:43 10° NW 18:04:20 88° ENE 18:06:38 10° SE
STARLINK-1020 3.6 18:00:46 10° WSW 18:04:55 85° SSE 18:08:29 14° ENE
STARLINK-59 3.8 18:00:59 10° W 18:04:59 62° N 18:08:19 14° ENE
STARLINK-56 3.8 18:02:33 10° W 18:06:33 62° N 18:09:50 15° ENE
STARLINK-1065 4.4 18:02:49 10° SSW 18:06:36 35° SE 18:09:29 15° E
STARLINK-73 3.8 18:04:12 10° W 18:08:12 62° N 18:11:25 15° ENE
Cosmos 1340 2.9 18:05:16 10° SSW 18:09:01 74° WNW 18:12:49 10° N
STARLINK-1010 3.4 18:05:50 10° W 18:09:04 56° N 18:11:28 17° ENE
NOAA 11 4.5 18:04:10 10° S 18:09:36 74° WSW 18:15:03 10° NNW
STARLINK-38 3.8 18:05:54 10° W 18:09:53 61° N 18:13:02 16° ENE
STARLINK-1052 3.6 18:05:44 10° WSW 18:09:54 89° SE 18:13:16 15° ENE
Cosmos 1346 Rocket 2.7 18:06:04 10° S 18:10:01 89° ESE 18:14:00 10° NNE
IRS-1A Rocket 4.4 18:04:58 10° SE 18:10:15 50° ENE 18:15:34 10° N
STARLINK-65 3.8 18:07:32 10° W 18:11:32 61° N 18:14:36 16° ENE
Cosmos 1937 Rocket 3.6 18:06:23 10° NNW 18:11:37 59° ENE 18:16:44 10° SE
STARLINK-1063 4.3 18:07:52 10° SSW 18:11:41 37° SE 18:14:25 17° E
STARLINK-1047 3.6 18:08:02 10° WSW 18:12:13 89° NNW 18:15:32 16° ENE
Cosmos 1464 Rocket 4.2 18:06:57 10° SSE 18:13:06 53° E 18:19:17 10° NNE
STARLINK-53 3.8 18:09:18 10° W 18:13:17 61° N 18:16:17 17° ENE
Genesis I 3.6 18:10:47 10° NNW 18:14:31 43° NE 18:17:06 18° ESE
ADEOS Rocket 3.6 18:07:10 10° NNE 18:14:58 65° E 18:22:30 10° S
USA 238 DEB 4.1 18:09:02 10° NW 18:15:55 51° NNE 18:21:52 15° ESE
USA 238 4.1 18:09:07 10° NW 18:16:01 51° NNE 18:21:56 15° ESE
STARLINK-1064 4.2 18:12:46 10° SW 18:16:39 40° SE 18:19:12 19° E
Meteor 2-11 Rocket 4.5 18:13:25 10° S 18:19:21 56° E 18:25:16 10° NNE
DMSP B5D1-3 4.5 18:14:34 10° NNE 18:19:44 67° ESE 18:24:51 10° S
STARLINK-1033 3.6 18:15:41 10° WSW 18:19:50 85° NNW 18:22:50 18° ENE
Cosmos 2227 Rocket 3.1 18:15:12 10° NNW 18:20:11 30° NE 18:23:26 18° E
STARLINK-1041 4.1 18:17:41 10° SW 18:21:36 43° SSE 18:23:59 21° E
Meteor 1-20 Rocket 4.1 18:16:11 10° S 18:21:38 72° E 18:27:14 10° NNE
Orbus 7S? 4.3 18:16:05 10° WSW 18:23:06 56° NNW 18:25:53 15° NE
NOSS 3-1 (C) 4.3 18:18:09 10° WSW 18:23:45 49° NNW 18:30:23 10° NE
Cosmos 2221 Rocket 4.2 18:20:31 10° N 18:24:44 36° ENE 18:28:33 12° SE
Cosmos 1656 Rocket 3.7 18:19:44 10° SSW 18:25:18 88° WNW 18:30:59 10° NNE
STARLINK-1038 4.0 18:22:35 10° SW 18:26:32 45° SSE 18:28:45 23° E
STARLINK-1024 3.6 18:25:41 10° WSW 18:29:50 79° NNW 18:32:25 22° ENE
STARLINK-1046 3.9 18:27:31 10° SW 18:31:31 48° SSE 18:33:33 25° E
H-2A R/B 2.3 18:26:21 10° SE 18:31:37 55° ENE 18:36:57 10° N
STARLINK 1040 3.1 18:28:59 10° WNW 18:31:43 49° N 18:32:39 32° ENE
STARLINK-22 3.3 18:31:42 10° WNW 18:34:58 57° N 18:36:16 31° ENE
Cosmos 2034 Rocket 4.0 18:29:39 10° SSE 18:35:36 55° E 18:41:37 10° NNE
Cosmos 372 Rocket 4.4 18:31:04 10° NNW 18:36:06 44° ENE 18:39:10 22° ESE
STARLINK-41 3.3 18:33:11 10° WNW 18:36:28 58° N 18:37:41 33° ENE
STARLINK-1039 3.9 18:32:29 10° SW 18:36:30 52° SSE 18:38:22 28° E
STARLINK-1016 3.5 18:33:59 10° W 18:37:21 55° N 18:38:43 30° ENE
Meteor 1-18 Rocket 4.4 18:31:50 10° NNW 18:37:46 84° W 18:43:34 10° S
Cosmos 220 Rocket 4.0 18:34:18 10° S 18:38:30 54° ESE 18:42:40 10° NNE
COSMOS 2487 4.5 18:35:44 10° NW 18:38:47 29° WSW 18:41:49 10° SSW
STARLINK-1008 3.5 18:35:39 10° W 18:39:01 55° N 18:40:20 32° ENE
STARLINK-1032 3.7 18:35:40 10° W 18:39:48 75° NNW 18:41:59 27° ENE
STARLINK-75 3.2 18:37:32 10° WNW 18:40:52 61° N 18:41:58 37° ENE
STARLINK-1045 3.8 18:37:25 10° SW 18:41:27 55° SSE 18:43:08 31° E
STARLINK-58 3.5 18:38:29 10° WNW 18:42:01 59° N 18:43:17 35° ENE
STARLINK-24 3.8 18:38:06 10° WNW 18:42:05 61° N 18:43:52 30° ENE
STARLINK-1025 3.5 18:39:49 10° WNW 18:43:11 55° N 18:44:21 35° ENE
STARLINK-62 3.4 18:40:12 10° WNW 18:43:43 60° N 18:44:55 36° ENE
STARLINK-43 4.5 18:40:45 10° WNW 18:44:13 38° SSW 18:46:22 19° SSE
STARLINK-1011 3.7 18:40:38 10° W 18:44:47 72° NNW 18:46:45 30° ENE
Timation 2 Rocket 4.4 18:38:21 10° NW 18:45:14 73° WSW 18:52:03 10° SSE
Resurs 1-3 4.4 18:44:36 29° E 18:45:15 30° ENE 18:49:06 10° N
STARLINK-1017 3.5 18:41:55 10° WNW 18:45:18 55° N 18:46:21 37° ENE
STARLINK-34 3.4 18:41:50 10° WNW 18:45:21 60° N 18:46:29 38° ENE
Okean 1 3.6 18:41:56 10° NNW 18:45:55 67° W 18:49:52 10° S
Lacrosse 5 rocket 1.8 18:41:46 10° WNW 18:46:15 56° NNE 18:48:11 31° E
STARLINK-1050 3.7 18:42:23 10° SW 18:46:28 60° SSE 18:47:59 35° E
STARLINK-1035 3.8 18:42:16 10° W 18:46:31 70° NNW 18:48:33 30° ENE
HJ-1C 4.1 18:43:25 10° S 18:46:40 55° W 18:49:56 10° NNW
STARLINK-1031 3.7 18:42:39 10° W 18:46:46 69° N 18:48:37 31° ENE
Okean 1-7 3.5 18:42:41 10° NNW 18:46:58 61° W 18:51:15 10° S
Cosmos 468 Rocket 3.9 18:42:58 10° SSW 18:48:16 83° ESE 18:53:38 10° NNE
Cosmos 2219 3.3 18:43:06 10° NNW 18:48:48 60° NE 18:52:15 24° SE
STARLINK-1036 3.7 18:45:38 10° W 18:49:46 71° NNW 18:51:32 33° ENE
STARLINK-1055 3.6 18:47:20 10° SW 18:51:25 63° SSE 18:52:45 39° E
STARLINK-1048 3.4 18:48:16 10° WNW 18:51:40 56° N 18:52:29 42° NE
Cosmos 405 4.4 18:48:27 10° NNW 18:51:48 40° W 18:55:08 10° SSW
Cosmos 1092 Rocket 4.1 18:45:53 10° N 18:52:10 58° ENE 18:58:24 10° SSE
Cosmos 192 4.3 18:47:50 10° SSW 18:52:45 90° WNW 18:57:41 10° NNE
STARLINK-81 3.8 18:48:50 10° WNW 18:52:49 61° N 18:54:10 38° ENE
Lacrosse 5 2.1 18:48:48 10° SSW 18:53:43 50° SE 18:55:38 33° E
STARLINK-1049 3.4 18:50:25 10° WNW 18:53:48 56° N 18:54:32 44° NE
MOS 1 4.2 18:48:38 10° SSE 18:54:17 84° ENE 18:59:59 10° NNW
STARLINK-54 3.7 18:50:41 10° WNW 18:54:41 62° N 18:55:56 40° ENE
STARLINK-1044 3.7 18:50:38 10° W 18:54:46 69° N 18:56:19 36° ENE
STARLINK-1051 3.4 18:52:36 10° WNW 18:55:59 56° N 18:56:37 46° NE
STARLINK-77 3.7 18:52:08 10° WNW 18:56:08 62° N 18:57:20 41° ENE
Meteor 2-4 Rocket 3.7 18:50:18 10° N 18:56:15 75° ENE 19:02:11 10° SSE
STARLINK-1022 3.6 18:52:16 10° SW 18:56:23 67° SSE 18:57:32 44° E
STARLINK-1027 3.9 18:52:58 10° W 18:57:13 66° N 18:58:47 37° ENE
STARLINK-1028 3.4 18:54:15 10° WNW 18:57:39 56° N 18:58:14 48° NE
STARLINK-25 3.7 18:53:48 10° WNW 18:57:47 62° N 18:58:55 42° ENE
Cosmos 2263 Rocket 4.1 18:55:02 10° N 18:58:16 15° NNE 18:59:45 14° NE
Meteor 1-14 Rocket 4.1 18:53:14 10° S 18:58:47 89° WNW 19:04:25 10° NNE
USA 234 3.7 18:55:21 23° ENE 18:59:23 52° N 19:05:41 10° WNW
Cosmos 1634 Rocket 4.4 18:53:39 10° SSE 18:59:27 40° E 19:05:16 10° NNE
STARLINK-71 3.7 18:55:40 10° WNW 18:59:40 63° N 19:00:42 44° ENE
STARLINK-1021 3.4 18:56:27 10° WNW 18:59:52 57° N 19:00:21 50° NE
CZ-2C R/B 4.4 18:55:51 10° NE 18:57:07 15° NE 18:57:07 15° NE
Gbstr 26 Del rocket 3.0 18:56:25 10° WSW 19:00:33 69° SSE 19:02:06 41° E
GP-B 4.1 19:01:33 30° NE 19:01:33 30° NE 19:04:36 10° NNE
STARLINK-79 3.7 18:57:07 10° WNW 19:01:08 62° N 19:02:07 45° ENE
STARLINK-1042 3.5 18:57:15 10° WSW 19:01:23 70° SSE 19:02:20 49° E
STARLINK-1019 3.3 18:58:39 10° WNW 19:02:04 57° N 19:02:28 52° NE
Cosmos 1814 Rocket 4.1 18:57:17 10° S 19:02:10 48° ESE 19:07:08 10° NNE
STARLINK-78 3.7 18:58:48 10° WNW 19:02:48 63° N 19:03:43 47° ENE
Cosmos 2369 Rocket 3.9 18:57:49 10° WSW 19:02:51 31° NW 19:07:56 10° NNE
SWAS 4.4 18:59:42 10° NNW 19:03:58 61° NE 19:04:48 49° ESE
Cosmos 2195 Rocket 4.5 18:58:02 10° N 19:04:06 59° ENE 19:08:27 20° SSE
STARLINK-1012 3.3 19:00:53 10° WNW 19:04:18 58° N 19:04:37 55° NNE
STARLINK-57 3.7 19:00:33 10° WNW 19:04:33 64° N 19:05:24 49° ENE
STARLINK-1037 3.8 19:00:32 10° W 19:04:39 66° N 19:05:48 44° NE
Cosmos 1602 4.2 19:01:34 10° SSW 19:05:23 60° WNW 19:09:14 10° N
SJ 16-02 2.8 19:01:32 10° NW 19:05:36 37° WSW 19:09:39 10° S
USA 186 1.7 19:05:54 62° NW 19:05:54 62° NW 19:08:31 10° NNW
STARLINK-49 3.7 19:02:06 10° WNW 19:06:07 63° N 19:06:53 50° ENE
NOSS 3-2 (A) 4.0 18:58:57 10° NW 19:06:15 76° NE 19:10:56 28° SE
STARLINK-1056 3.5 19:02:13 10° WSW 19:06:21 74° SSE 19:07:06 56° E
STARLINK-48 3.5 19:03:03 10° WNW 19:06:57 71° SSW 19:07:38 55° SE
STARLINK-27 3.7 19:03:44 10° WNW 19:07:45 64° N 19:08:28 52° ENE
Cosmos 841 Rocket 3.4 19:03:09 10° S 19:08:12 59° ESE 19:13:19 10° NNE
Cosmos 1763 Rocket 3.5 19:03:23 10° SSW 19:08:38 84° WNW 19:13:59 10° NNE
STARLINK-1026 3.3 19:05:20 10° WNW 19:08:45 58° N 19:08:53 58° NNE
STARLINK-1023 3.3 19:05:38 10° WNW 19:08:52 57° N 19:08:52 57° N
STARLINK-74 3.6 19:05:25 10° WNW 19:09:26 64° N 19:10:04 54° NE
Cosmos 2298 Rocket 3.9 19:04:18 10° NNW 19:09:40 74° ENE 19:12:03 34° SE
STARLINK-1059 3.8 19:05:36 10° W 19:09:44 65° N 19:10:40 48° NE
NOSS 3-2 (C) 4.1 19:02:53 10° NW 19:10:03 62° NE 19:13:51 33° ESE
ARGOS 3.1 19:05:13 10° SSE 19:10:40 88° WSW 19:16:09 10° NNW
Resurs 01 Rocket 2.3 19:11:23 37° NE 19:11:23 37° NE 19:15:01 10° N
STARLINK-1013 3.3 19:07:35 10° WNW 19:11:00 59° N 19:11:03 59° NNE
STARLINK-39 3.6 19:07:03 10° WNW 19:11:04 65° N 19:11:38 56° NE
STARLINK-1054 3.5 19:07:10 10° WSW 19:11:18 77° SSE 19:11:52 63° E
STARLINK-26 3.2 19:08:44 10° WNW 19:12:11 66° SSW 19:12:15 66° SSW
STARLINK-31 3.6 19:08:45 10° WNW 19:12:46 65° N 19:13:16 58° NE
STARLINK-61 3.3 19:09:07 10° WNW 19:13:03 78° NNE 19:13:23 71° ENE
STARLINK-1009 3.4 19:09:48 10° WNW 19:13:11 59° N 19:13:11 59° N
STARLINK-69 3.5 19:10:36 10° WNW 19:14:37 67° N 19:15:02 61° NE
STARLINK-1057 3.8 19:10:37 10° W 19:14:44 64° N 19:15:28 53° NE
Cosmos 1869 Rocket 4.0 19:10:45 10° SSW 19:15:06 61° WNW 19:19:26 10° N
Cosmos 2208 Rocket 3.9 19:09:57 10° SSW 19:15:19 73° ESE 19:20:40 10° NNE
ARGOS Delta rocket 3.5 19:13:10 29° SSE 19:15:23 86° E 19:19:57 10° N
STARLINK-1015 3.4 19:12:04 10° WNW 19:15:23 59° N 19:15:23 59° N
SPOT 3 Rocket 3.4 19:13:10 28° SSE 19:16:00 77° ENE 19:21:15 10° NNW
Meteor 1-11 Rocket 3.8 19:10:45 10° SSE 19:16:02 47° E 19:21:19 10° NNE
STARLINK-21 3.6 19:12:05 10° WNW 19:16:07 66° N 19:16:28 62° NE
STARLINK-1062 3.4 19:12:08 10° WSW 19:16:16 81° SSE 19:16:39 71° E
STARLINK-45 3.5 19:13:58 10° WNW 19:17:59 68° NNE 19:18:15 65° NE
CENTAUR R/B 3.2 19:11:23 10° NW 19:19:02 61° NE 19:22:39 36° ESE
STARLINK-70 3.5 19:15:31 10° WNW 19:19:32 68° N 19:19:45 66° NE
STARLINK-1034 3.8 19:15:35 10° W 19:19:42 63° N 19:20:14 57° NNE
STARLINK-1014 3.6 19:17:14 10° WNW 19:20:28 57° NNW 19:20:28 57° NNW
Cosmos 389 Rocket 3.5 19:17:26 10° N 19:19:48 36° N 19:19:48 36° N
STARLINK-76 3.5 19:17:03 10° WNW 19:21:05 68° N 19:21:13 67° NNE
STARLINK-1053 3.4 19:17:07 10° WSW 19:21:16 84° SSE 19:21:26 80° ESE
STARLINK-23 3.5 19:18:42 10° WNW 19:22:44 68° N 19:22:49 68° NNE
STARLINK-80 4.2 19:19:17 10° WNW 19:22:55 42° SSW 19:23:11 41° SSW
STARLINK-32 3.6 19:20:20 10° WNW 19:24:22 69° N 19:24:23 69° NNE
STARLINK-1068 3.8 19:20:35 10° W 19:24:42 62° N 19:25:01 60° NNE
CZ-2C R/B 3.5 19:20:01 10° S 19:25:48 71° WSW 19:31:26 10° NNW
STARLINK-40 3.6 19:22:01 10° WNW 19:25:59 69° N 19:25:59 69° N
STARLINK-1061 3.5 19:22:04 10° WSW 19:26:12 88° S 19:26:12 88° S
Cosmos 2150 Rocket 4.0 19:20:57 10° NNW 19:26:25 89° ENE 19:28:23 42° SSE
STARLINK-44 3.6 19:23:40 10° WNW 19:27:35 69° N 19:27:35 69° N
Meteor 2-9 4.5 19:23:36 10° S 19:28:59 87° E 19:34:24 10° NNE
STARLINK-64 3.7 19:25:51 10° WNW 19:28:51 59° WNW 19:28:51 59° WNW
STARLINK-37 3.6 19:25:27 10° WNW 19:29:16 70° NNW 19:29:16 70° NNW
STARLINK-33 4.1 19:26:19 10° WNW 19:28:41 44° WNW 19:28:41 44° WNW
Cosmos 1570 Rocket 4.1 19:24:24 10° SSW 19:29:39 77° WNW 19:34:59 10° NNE
SJ-6B 3.4 19:29:20 37° SSW 19:30:29 53° W 19:34:15 10° NNW
STARLINK-55 4.2 19:27:40 10° WNW 19:30:00 43° WNW 19:30:00 43° WNW
STARLINK-36 3.7 19:26:58 10° WNW 19:30:44 68° NNW 19:30:44 68° NNW
STARLINK-1067 3.6 19:27:03 10° WSW 19:31:00 80° WSW 19:31:00 80° WSW
Okean 3 4.0 19:27:25 10° NNW 19:31:35 57° W 19:33:29 29° SSW
Cosmos 1125 Rocket 3.5 19:26:19 10° NNW 19:31:38 63° ENE 19:32:01 61° E
STARLINK-66 4.2 19:28:34 10° WNW 19:30:52 42° WNW 19:30:52 42° WNW
STARLINK-28 4.3 19:29:16 10° WNW 19:31:31 40° W 19:31:31 40° W
STARLINK-68 3.7 19:28:50 10° WNW 19:32:31 68° NNW 19:32:31 68° NNW
Cosmos 1378 Rocket 4.4 19:28:58 10° N 19:31:47 36° NNE 19:31:47 36° NNE
STARLINK-42 4.4 19:30:01 10° WNW 19:32:09 38° WNW 19:32:09 38° WNW
Ariane Rocket 4.5 19:28:53 10° SSW 19:33:34 36° W 19:38:16 10° NNW
ATLAS 3B R/B 3.1 19:27:31 10° NW 19:33:59 48° NE 19:35:31 41° ENE
STARLINK-63 3.8 19:30:23 10° WNW 19:34:01 66° NW 19:34:01 66° NW
STARLINK-1060 3.9 19:30:34 10° W 19:34:34 61° NNW 19:34:34 61° NNW
Cosmos 540 Rocket 3.3 19:29:37 10° SSW 19:34:45 84° ESE 19:39:57 10° NNE
STARLINK-35 3.8 19:31:56 10° WNW 19:35:31 64° NW 19:35:31 64° NW
STARLINK-1058 3.7 19:32:01 10° WSW 19:35:46 72° W 19:35:46 72° W
STARLINK-1007 4.4 19:33:21 10° WNW 19:35:37 38° WNW 19:35:37 38° WNW
STARLINK-51 3.9 19:33:35 10° WNW 19:37:06 62° NW 19:37:06 62° NW
Cosmos 1627 Rocket 4.4 19:31:31 10° N 19:37:45 90° SW 19:41:01 30° S
STARLINK-30 3.9 19:35:15 10° WNW 19:38:42 60° NW 19:38:42 60° NW
STARLINK-1030 4.0 19:35:35 10° W 19:39:22 59° NNW 19:39:22 59° NNW
STARLINK-72 4.0 19:36:56 10° WNW 19:40:18 59° NW 19:40:18 59° NW
STARLINK-1043 3.9 19:37:00 10° WSW 19:40:33 63° W 19:40:33 63° W
Meteor 1-13 Rocket 4.4 19:35:20 10° NNW 19:41:12 72° W 19:44:36 25° S
Cosmos 1066 Rocket 4.2 19:35:57 10° N 19:41:44 63° ENE 19:42:00 62° E
STARLINK-50 4.1 19:38:34 10° WNW 19:41:53 57° NW 19:41:53 57° NW
SL-08 RB Rocket 4.1 19:42:32 40° SSW 19:43:54 58° W 19:48:20 10° NNW
STARLINK-59 4.2 19:40:20 10° WNW 19:43:34 55° WNW 19:43:34 55° WNW
STARLINK-1020 4.2 19:40:34 10° W 19:44:09 55° NW 19:44:09 55° NW
Cosmos 2297 Rocket 2.2 19:39:53 10° NNW 19:45:34 77° WSW 19:46:50 55° S
APEX 4.2 19:40:29 10° SSW 19:45:44 83° WNW 19:52:16 10° NNE
STARLINK-56 4.2 19:41:54 10° WNW 19:45:04 53° WNW 19:45:04 53° WNW
STARLINK-1065 4.2 19:41:49 10° WSW 19:45:09 56° W 19:45:09 56° W
CZ-2C R/B 3.7 19:41:45 10° NNE 19:46:26 81° WNW 19:51:09 10° SSW
STARLINK-73 4.3 19:43:32 10° WNW 19:46:39 51° WNW 19:46:39 51° WNW
STARLINK-38 4.4 19:45:14 10° WNW 19:48:16 49° WNW 19:48:16 49° WNW
STARLINK-1052 4.4 19:45:34 10° W 19:48:55 51° NW 19:48:55 51° NW
Spot 2 Rocket 4.2 19:51:22 40° NNE 19:51:22 40° NNE 19:55:00 10° N
STARLINK-65 4.4 19:46:52 10° WNW 19:49:50 48° WNW 19:49:50 48° WNW
STARLINK-1063 4.4 19:46:57 10° WSW 19:50:05 50° W 19:50:05 50° W
STARLINK-1047 4.4 19:47:59 10° W 19:51:18 49° NW 19:51:18 49° NW
Terra 4.2 19:57:29 13° NNE 19:57:29 13° NNE 19:58:12 10° NNE
Cosmos 2026 Rocket 4.1 19:49:30 10° NNW 19:55:41 73° W 19:58:22 35° S
ATLAS 2AS CENTAUR R/B 4.4 19:51:22 10° S 19:53:45 21° S 19:53:45 21° S
Meteor 1-5 Rocket 4.5 19:54:31 10° SSW 20:00:00 66° WNW 20:05:44 10° N
MetOp-B 4.4 20:05:14 57° N 20:05:14 57° N 20:09:35 10° NNW
Cosmos 2227 Rocket 2.4 19:59:04 10° NW 20:04:40 63° WSW 20:05:17 59° SSW
Cosmos 1674 Rocket 4.4 20:01:30 10° NNW 20:05:11 50° WNW 20:05:11 50° WNW
Meteor 1-23 Rocket 4.2 20:01:15 10° NNW 20:06:56 79° W 20:07:08 78° SW
USA 238 DEB 4.2 20:00:07 10° NW 20:07:07 58° SW 20:09:21 43° S
USA 238 4.2 20:00:13 10° NW 20:07:13 58° SW 20:09:24 43° S
Cosmos 2082 3.7 20:05:08 10° NNW 20:10:31 78° NW 20:10:31 78° NW
H-2A R/B 4.0 20:06:46 10° SSW 20:11:20 27° W 20:15:57 10° NW
Lacrosse 5 rocket 3.2 20:21:04 10° WNW 20:23:51 32° W 20:23:51 32° W
Cosmos 1655 Rocket 4.1 20:21:32 10° N 20:27:24 75° NNW 20:27:24 75° NNW
Lacrosse 5 3.2 20:31:41 10° W 20:34:52 36° W 20:34:52 36° W
Cosmos 2279 Rocket 4.4 20:40:08 59° NNW 20:40:08 59° NNW 20:45:21 10° N
CZ-2C R/B 3.9 20:35:31 10° N 20:38:39 34° N 20:38:39 34° N
USA 234 3.3 20:42:41 70° NNW 20:42:41 70° NNW 20:48:36 10° WNW
Cosmos 2263 Rocket 3.6 20:38:13 10° NNW 20:41:27 31° N 20:41:27 31° N
Resurs 01 Rocket 3.8 20:48:56 23° WNW 20:48:56 23° WNW 20:51:20 10° NW
CENTAUR R/B 3.6 21:02:12 10° NW 21:09:51 53° WSW 21:09:51 53° WSW
ATLAS 3B R/B 3.6 21:18:18 10° NW 21:22:47 42° WNW 21:22:47 42° WNW
